星链-30910 (STARLINK-30910 )

导读

STARLINK-30910是美国SpaceX星链互联网卫星项目的成员,于2023年11月20日发射升空,属于星链星座的低轨组网部署卫星。星链项目旨在构建全球卫星互联网系统,该卫星入轨后承担低轨道上的通信传输任务,为全球偏远地区等提供宽带互联网接入服务,推动全球互联网络覆盖能力提升。

基本信息
目录编号:
58376
目录名称:
STARLINK-30910
国际标识:
2023-178C
轨道中心:
EARTH
卫星名称:
星链-30910
卫星全名:
星链-30910 (STARLINK-30910 )
卫星状态:
在轨 (已飞行941 天)
发射日期:
2023-11-20 UTC
国别 :
美国 (US)
星等 :
--
轨道信息
数据来源 国际轨道数据 AOE轨道数据
星历时间 2026-06-17T19:43:41+0800
21小时前
查看轨道信息
2026-06-17T06:00:00+0800
1天前
查看轨道信息
半长轴 6840.883km 6840.83km
偏心率 0.0001232 0.0002589
轨道倾角 53.160° 53.154°
近地点辐角 83.468° 109.431°
升交点赤经 255.926° 258.603°
平近点角 276.647° 329.320°
近地点 461.903km 460.921km
远地点 463.589km 464.465km
周期 93.849分钟 93.848分钟
每日圈数 15.343857 15.344037
详细信息
固有亮度:
5
最大亮度:
0.3
卫星平台:
Starlink v2.0 mini
覆盖范围:
全球
运营商:
太空探索技术公司
运营商所在国:
美国
制造商(研发单位):
太空探索技术公司
制造商所在国:
美国
使用方式:
暂无
卫星简介
星链(Starlink)计划是由太空探索技术公司(SpaceX)提出的一个巨型低轨卫星互联网星座项目,计划在2019年至2024年间在太空搭建由约1.2万颗卫星组成的“星链”网络,其中1584颗将部署在地球上空550千米处的近地轨道,并从2020年开始工作。该卫星仍在工作。
2D轨道图
3D轨道图
轨道高度分析图
轨道倾角分析图
轨道综合分析图
查看轨道综合分析图